AJAX123 YPAD-YPAD

Flight info

Callsign AJAX123
Flight time 0h 33m
Altitude 20000
Route DCT AD HAWKY MARGO AD
Aircraft BE20/L-SDFGHRZ/EB1

Departure

Time 2026-05-05 02:30
Airport Adelaide International Airport (YPAD)

Arrival

Time 2026-05-05 03:04
Airport Adelaide International Airport (YPAD)
Time Latitude Longitude Altitude Speed Heading
2026-05-05 01:58 -34.95008 138.52214 28 ft 0 kts 50°
2026-05-05 02:07 -34.95007 138.52214 28 ft 0 kts 50°
2026-05-05 02:20 -34.95005 138.52222 28 ft 2 kts 79°
2026-05-05 02:21 -34.95019 138.52252 28 ft 4 kts 137°
2026-05-05 02:21 -34.95045 138.52263 28 ft 4 kts 216°
2026-05-05 02:21 -34.95076 138.52257 28 ft 6 kts 137°
2026-05-05 02:21 -34.95106 138.52303 28 ft 9 kts 128°
2026-05-05 02:22 -34.95128 138.52336 28 ft 3 kts 110°
2026-05-05 02:22 -34.95114 138.52374 28 ft 7 kts 39°
2026-05-05 02:22 -34.95066 138.52420 28 ft 10 kts 37°
2026-05-05 02:22 -34.95000 138.52481 28 ft 12 kts 38°
2026-05-05 02:23 -34.94924 138.52551 28 ft 14 kts 37°
2026-05-05 02:23 -34.94840 138.52632 28 ft 16 kts 37°
2026-05-05 02:23 -34.94758 138.52710 28 ft 11 kts 37°
2026-05-05 02:23 -34.94703 138.52760 28 ft 10 kts 37°
2026-05-05 02:24 -34.94636 138.52823 28 ft 13 kts 38°
2026-05-05 02:24 -34.94557 138.52898 28 ft 15 kts 37°
2026-05-05 02:24 -34.94476 138.52974 28 ft 13 kts 37°
2026-05-05 02:24 -34.94443 138.53070 29 ft 13 kts 97°
2026-05-05 02:25 -34.94483 138.53163 31 ft 12 kts 123°
2026-05-05 02:25 -34.94518 138.53258 31 ft 13 kts 97°
2026-05-05 02:25 -34.94490 138.53366 31 ft 14 kts 53°
2026-05-05 02:25 -34.94421 138.53465 31 ft 16 kts 49°
2026-05-05 02:26 -34.94348 138.53574 31 ft 17 kts 50°
2026-05-05 02:26 -34.94272 138.53682 32 ft 17 kts 50°
2026-05-05 02:26 -34.94194 138.53796 32 ft 18 kts 50°
2026-05-05 02:26 -34.94114 138.53914 34 ft 17 kts 50°
2026-05-05 02:27 -34.94038 138.54025 34 ft 17 kts 50°
2026-05-05 02:27 -34.93971 138.54123 35 ft 11 kts 50°
2026-05-05 02:27 -34.93965 138.54210 35 ft 9 kts 135°
2026-05-05 02:27 -34.93986 138.54231 35 ft 0 kts 140°
2026-05-05 02:28 -34.93999 138.54244 35 ft 4 kts 139°
2026-05-05 02:28 -34.94030 138.54275 34 ft 7 kts 140°
2026-05-05 02:28 -34.94070 138.54306 34 ft 4 kts 187°
2026-05-05 02:29 -34.94085 138.54294 34 ft 0 kts 227°
2026-05-05 02:29 -34.94123 138.54239 35 ft 30 kts 230°
2026-05-05 02:30 -34.94469 138.53731 51 ft 113 kts 229°
2026-05-05 02:30 -34.94998 138.52927 430 ft 134 kts 231°
2026-05-05 02:30 -34.95620 138.51941 814 ft 157 kts 231°
2026-05-05 02:30 -34.96297 138.50865 1312 ft 166 kts 232°
2026-05-05 02:31 -34.96778 138.49599 1930 ft 168 kts 259°
2026-05-05 02:31 -34.96610 138.48216 2523 ft 174 kts 293°
2026-05-05 02:31 -34.95780 138.47127 3073 ft 183 kts 327°
2026-05-05 02:31 -34.94575 138.46642 3697 ft 185 kts 346°
2026-05-05 02:32 -34.93328 138.46356 4312 ft 184 kts 344°
2026-05-05 02:32 -34.92151 138.45819 4885 ft 184 kts 328°
2026-05-05 02:32 -34.91108 138.44934 5503 ft 183 kts 316°
2026-05-05 02:32 -34.90221 138.43855 6096 ft 183 kts 308°
2026-05-05 02:33 -34.89419 138.42658 6689 ft 184 kts 304°
2026-05-05 02:33 -34.88673 138.41414 7258 ft 185 kts 302°
2026-05-05 02:33 -34.87939 138.40128 7828 ft 187 kts 301°
2026-05-05 02:33 -34.87205 138.38812 8416 ft 188 kts 301°
2026-05-05 02:34 -34.86476 138.37497 8973 ft 189 kts 301°
2026-05-05 02:34 -34.85741 138.36166 9508 ft 191 kts 301°
2026-05-05 02:34 -34.85002 138.34828 10022 ft 193 kts 301°
2026-05-05 02:34 -34.84258 138.33481 10518 ft 195 kts 302°
2026-05-05 02:35 -34.83501 138.32109 11062 ft 197 kts 302°
2026-05-05 02:35 -34.82736 138.30725 11633 ft 198 kts 302°
2026-05-05 02:35 -34.81977 138.29352 12164 ft 199 kts 302°
2026-05-05 02:35 -34.81197 138.27942 12678 ft 201 kts 302°
2026-05-05 02:36 -34.80416 138.26532 13171 ft 203 kts 302°
2026-05-05 02:36 -34.79633 138.25117 13646 ft 204 kts 302°
2026-05-05 02:36 -34.78842 138.23691 14106 ft 206 kts 302°
2026-05-05 02:36 -34.78037 138.22238 14556 ft 207 kts 302°
2026-05-05 02:37 -34.77451 138.21181 14871 ft 208 kts 302°
2026-05-05 02:37 -34.77111 138.20570 15049 ft 209 kts 302°
2026-05-05 02:38 -34.76301 138.19109 15464 ft 210 kts 302°
2026-05-05 02:38 -34.75476 138.17624 15870 ft 212 kts 302°
2026-05-05 02:38 -34.74655 138.16144 16258 ft 213 kts 302°
2026-05-05 02:38 -34.74488 138.15842 16335 ft 213 kts 302°
2026-05-05 02:40 -34.73835 138.14667 16631 ft 214 kts 302°
2026-05-05 02:40 -34.73010 138.13182 16993 ft 216 kts 302°
2026-05-05 02:41 -34.72160 138.11652 17352 ft 217 kts 302°
2026-05-05 02:41 -34.71318 138.10136 17697 ft 218 kts 302°
2026-05-05 02:41 -34.70473 138.08618 18030 ft 219 kts 302°
2026-05-05 02:41 -34.69621 138.07088 18347 ft 220 kts 302°
2026-05-05 02:42 -34.69033 138.06030 18560 ft 221 kts 302°
2026-05-05 02:42 -34.68907 138.05806 18605 ft 221 kts 302°
2026-05-05 02:42 -34.68049 138.04265 18907 ft 222 kts 302°
2026-05-05 02:43 -34.67175 138.02696 19205 ft 224 kts 302°
2026-05-05 02:43 -34.66309 138.01144 19489 ft 225 kts 302°
2026-05-05 02:43 -34.65427 137.99562 19769 ft 226 kts 302°
2026-05-05 02:43 -34.64551 137.97987 20001 ft 229 kts 302°
2026-05-05 02:44 -34.63646 137.96359 20015 ft 241 kts 302°
2026-05-05 02:44 -34.62678 137.94617 20017 ft 251 kts 302°
2026-05-05 02:44 -34.61692 137.92851 20012 ft 260 kts 303°
2026-05-05 02:44 -34.60544 137.91144 19987 ft 262 kts 316°
2026-05-05 02:45 -34.59043 137.89916 20001 ft 263 kts 333°
2026-05-05 02:45 -34.57296 137.89279 19997 ft 264 kts 351°
2026-05-05 02:45 -34.55468 137.89310 19998 ft 263 kts
2026-05-05 02:45 -34.53746 137.89999 19998 ft 263 kts 27°
2026-05-05 02:46 -34.52267 137.91293 20001 ft 262 kts 43°
2026-05-05 02:46 -34.50946 137.92807 20003 ft 262 kts 43°
2026-05-05 02:46 -34.49635 137.94321 19998 ft 261 kts 44°
2026-05-05 02:46 -34.48328 137.95836 19999 ft 261 kts 44°
2026-05-05 02:47 -34.47023 137.97350 19999 ft 261 kts 44°
2026-05-05 02:47 -34.45773 137.98953 19989 ft 261 kts 54°
2026-05-05 02:47 -34.44943 138.00870 19998 ft 259 kts 71°
2026-05-05 02:47 -34.44599 138.03035 19747 ft 268 kts 89°
2026-05-05 02:48 -34.44843 138.05315 19372 ft 278 kts 108°
2026-05-05 02:48 -34.45707 138.07413 19020 ft 284 kts 128°
2026-05-05 02:48 -34.47123 138.09059 18668 ft 288 kts 145°
2026-05-05 02:48 -34.48745 138.10519 18323 ft 293 kts 144°
2026-05-05 02:49 -34.50392 138.12027 17957 ft 297 kts 144°
2026-05-05 02:49 -34.52027 138.13518 17599 ft 300 kts 144°
2026-05-05 02:49 -34.53705 138.15051 17223 ft 301 kts 144°
2026-05-05 02:49 -34.55370 138.16560 16856 ft 302 kts 144°
2026-05-05 02:50 -34.57052 138.18085 16485 ft 302 kts 144°
2026-05-05 02:50 -34.58732 138.19609 16107 ft 303 kts 144°
2026-05-05 02:50 -34.60419 138.21143 15733 ft 302 kts 144°
2026-05-05 02:50 -34.62061 138.22682 15364 ft 302 kts 144°
2026-05-05 02:51 -34.63738 138.24196 14993 ft 301 kts 145°
2026-05-05 02:51 -34.65431 138.25719 14614 ft 299 kts 145°
2026-05-05 02:51 -34.67088 138.27216 14240 ft 298 kts 145°
2026-05-05 02:51 -34.68742 138.28714 13865 ft 296 kts 144°
2026-05-05 02:52 -34.70374 138.30199 13493 ft 295 kts 144°
2026-05-05 02:52 -34.72026 138.31703 13116 ft 294 kts 144°
2026-05-05 02:52 -34.73633 138.33168 12746 ft 293 kts 144°
2026-05-05 02:52 -34.75264 138.34656 12369 ft 291 kts 144°
2026-05-05 02:53 -34.76875 138.36128 11995 ft 290 kts 144°
2026-05-05 02:53 -34.78466 138.37631 11611 ft 289 kts 139°
2026-05-05 02:53 -34.79500 138.39671 11199 ft 291 kts 108°
2026-05-05 02:53 -34.79754 138.42107 10858 ft 290 kts 94°
2026-05-05 02:54 -34.79781 138.44563 10483 ft 289 kts 91°
2026-05-05 02:54 -34.79754 138.46982 10110 ft 287 kts 90°
2026-05-05 02:54 -34.79726 138.49391 9733 ft 284 kts 91°
2026-05-05 02:54 -34.79707 138.51773 9357 ft 281 kts 91°
2026-05-05 02:55 -34.79695 138.54166 8978 ft 280 kts 91°
2026-05-05 02:55 -34.79525 138.56503 8569 ft 280 kts 74°
2026-05-05 02:55 -34.78608 138.58557 8214 ft 274 kts 59°
2026-05-05 02:55 -34.77608 138.60489 7837 ft 270 kts 58°
2026-05-05 02:56 -34.76599 138.62373 7459 ft 266 kts 58°
2026-05-05 02:56 -34.75590 138.64246 7078 ft 262 kts 58°
2026-05-05 02:56 -34.74604 138.66081 6699 ft 259 kts 57°
2026-05-05 02:56 -34.73730 138.67952 6333 ft 250 kts 73°
2026-05-05 02:57 -34.73730 138.69960 6060 ft 236 kts 109°
2026-05-05 02:57 -34.74582 138.71564 5751 ft 221 kts 139°
2026-05-05 02:57 -34.75705 138.72774 5457 ft 213 kts 142°
2026-05-05 02:57 -34.76817 138.73885 5141 ft 200 kts 143°
2026-05-05 02:58 -34.77937 138.74745 4791 ft 187 kts 165°
2026-05-05 02:58 -34.79189 138.74852 4486 ft 180 kts 194°
2026-05-05 02:58 -34.80211 138.74063 4256 ft 173 kts 224°
2026-05-05 02:58 -34.81059 138.73012 4046 ft 175 kts 226°
2026-05-05 02:59 -34.81874 138.71927 3808 ft 174 kts 227°
2026-05-05 02:59 -34.82664 138.70830 3572 ft 173 kts 228°
2026-05-05 02:59 -34.83448 138.69717 3344 ft 172 kts 229°
2026-05-05 02:59 -34.84216 138.68616 3103 ft 172 kts 229°
2026-05-05 03:00 -34.84994 138.67493 2862 ft 172 kts 229°
2026-05-05 03:00 -34.85747 138.66405 2724 ft 163 kts 229°
2026-05-05 03:00 -34.86466 138.65363 2447 ft 160 kts 229°
2026-05-05 03:00 -34.87172 138.64339 2218 ft 156 kts 229°
2026-05-05 03:01 -34.87851 138.63353 1975 ft 148 kts 229°
2026-05-05 03:01 -34.88498 138.62415 1787 ft 140 kts 229°
2026-05-05 03:01 -34.89107 138.61533 1612 ft 134 kts 229°
2026-05-05 03:01 -34.89700 138.60672 1407 ft 130 kts 229°
2026-05-05 03:02 -34.90264 138.59851 1222 ft 124 kts 229°
2026-05-05 03:02 -34.90805 138.59065 1050 ft 118 kts 229°
2026-05-05 03:02 -34.91322 138.58315 895 ft 113 kts 229°
2026-05-05 03:02 -34.91815 138.57584 735 ft 111 kts 229°
2026-05-05 03:03 -34.92306 138.56880 606 ft 108 kts 228°
2026-05-05 03:03 -34.92784 138.56184 492 ft 106 kts 229°
2026-05-05 03:03 -34.93260 138.55490 354 ft 108 kts 227°
2026-05-05 03:03 -34.93744 138.54791 185 ft 107 kts 229°
2026-05-05 03:04 -34.94212 138.54109 42 ft 100 kts 228°
2026-05-05 03:04 -34.94503 138.53687 31 ft 10 kts 231°
2026-05-05 03:04 -34.94538 138.53633 31 ft 12 kts 229°
2026-05-05 03:04 -34.94581 138.53555 31 ft 9 kts 267°
2026-05-05 03:05 -34.94550 138.53485 31 ft 9 kts 305°
2026-05-05 03:05 -34.94510 138.53426 31 ft 8 kts 309°
2026-05-05 03:05 -34.94498 138.53358 31 ft 8 kts 249°
2026-05-05 03:05 -34.94518 138.53294 31 ft 8 kts 255°
2026-05-05 03:06 -34.94511 138.53224 31 ft 8 kts 289°
2026-05-05 03:06 -34.94487 138.53171 31 ft 7 kts 304°
2026-05-05 03:06 -34.94453 138.53105 30 ft 10 kts 300°
2026-05-05 03:06 -34.94451 138.53012 28 ft 12 kts 245°
2026-05-05 03:07 -34.94508 138.52943 28 ft 11 kts 218°
2026-05-05 03:07 -34.94566 138.52889 28 ft 10 kts 217°
2026-05-05 03:07 -34.94622 138.52837 28 ft 9 kts 217°
2026-05-05 03:07 -34.94675 138.52786 28 ft 9 kts 218°
2026-05-05 03:08 -34.94736 138.52728 28 ft 14 kts 218°
2026-05-05 03:08 -34.94817 138.52653 28 ft 15 kts 217°
2026-05-05 03:08 -34.94912 138.52563 28 ft 18 kts 218°
2026-05-05 03:08 -34.95009 138.52472 28 ft 16 kts 218°
2026-05-05 03:09 -34.95076 138.52409 28 ft 10 kts 217°
2026-05-05 03:09 -34.95123 138.52365 28 ft 6 kts 226°
2026-05-05 03:09 -34.95113 138.52312 28 ft 7 kts 306°
2026-05-05 03:09 -34.95080 138.52258 28 ft 5 kts 307°
2026-05-05 03:10 -34.95060 138.52249 28 ft 2 kts 24°
2026-05-05 03:10 -34.95039 138.52269 28 ft 5 kts 356°
2026-05-05 03:10 -34.95009 138.52243 28 ft 3 kts 321°
2026-05-05 03:10 -34.95005 138.52217 28 ft 1 kts 229°
2026-05-05 03:11 -34.95009 138.52211 28 ft 0 kts 227°
2026-05-05 03:11 -34.95010 138.52211 28 ft 0 kts 227°